CW5455 Weather Reports


time (UTC)temp
C
wind
direction
speed
KPH
gust
KPH
rain 1hr
cm
rain 24hr
cm
rain mn
cm
humidity
%
barometer
mb
20260507213853 11 71 3.2 6.4 0.00 0.05 0.05 79 1014.8
20260507212850 11 56 3.2 6.4 0.00 0.05 0.05 79 1014.8
20260507212352 11 66 3.2 11.3 0.00 0.05 0.05 79 1014.8
20260507211848 11 63 6.4 11.3 0.00 0.05 0.05 79 1014.8
20260507211343 11 49 4.8 8.0 0.00 0.05 0.05 79 1014.8
20260507210843 10 58 4.8 8.0 0.00 0.05 0.05 80 1014.8
20260507210341 11 69 3.2 6.4 0.00 0.05 0.05 79 1014.8
20260507205839 11 80 3.2 6.4 0.00 0.05 0.05 79 1014.9
20260507204337 11 58 4.8 9.7 0.00 0.05 0.05 78 1014.8
20260507203833 11 49 6.4 8.0 0.00 0.05 0.05 78 1014.7
20260507202833 11 69 4.8 11.3 0.00 0.05 0.05 78 1014.6
20260507201833 11 72 3.2 8.0 0.00 0.05 0.05 78 1014.6
20260507201331 11 53 4.8 8.0 0.00 0.05 0.05 78 1014.6
20260507200832 11 61 3.2 6.4 0.00 0.05 0.05 78 1014.6
20260507195828 11 64 3.2 6.4 0.00 0.05 0.05 78 1014.6
20260507195325 11 63 3.2 6.4 0.00 0.05 0.05 78 1014.5
20260507194824 11 62 3.2 6.4 0.00 0.05 0.05 78 1014.5
20260507194327 11 61 4.8 6.4 0.00 0.05 0.05 78 1014.5
20260507193822 12 38 3.2 4.8 0.00 0.05 0.05 77 1014.5
20260507193315 12 38 1.6 4.8 0.00 0.05 0.05 76 1014.5
20260507192808 12 38 3.2 4.8 0.00 0.05 0.05 75 1014.5
20260507192307 12 38 3.2 4.8 0.00 0.05 0.05 75 1014.3
20260507191808 12 216 1.6 3.2 0.00 0.05 0.05 75 1014.3
20260507190804 12 216 1.6 4.8 0.00 0.05 0.05 76 1014.3
20260507190303 12 216 3.2 4.8 0.00 0.05 0.05 76 1014.2
20260507185802 12 216 1.6 3.2 0.00 0.05 0.05 76 1014.2
20260507185305 13 216 1.6 3.2 0.00 0.05 0.05 75 1014.2
20260507184804 13 216 1.6 3.2 0.00 0.05 0.05 75 1014.3
20260507184301 13 216 1.6 3.2 0.00 0.05 0.05 75 1014.2
20260507183802 13 216 1.6 3.2 0.00 0.05 0.05 75 1014.1
20260507183300 13 216 3.2 3.2 0.00 0.05 0.05 74 1014.1
20260507182236 13 216 0.0 1.6 0.00 0.05 0.05 71 1014.1
20260507181734 14 216 0.0 4.8 0.00 0.05 0.05 68 1014.0
20260507181237 14 216 1.6 4.8 0.00 0.05 0.05 65 1013.9
20260507180730 14 216 1.6 4.8 0.00 0.05 0.05 63 1013.9
20260507180232 15 216 1.6 6.4 0.00 0.05 0.05 63 1013.9
20260507175730 15 220 1.6 6.4 0.00 0.05 0.05 63 1013.8
20260507175225 15 235 3.2 6.4 0.00 0.05 0.05 62 1013.7
20260507174726 15 207 4.8 6.4 0.00 0.05 0.05 62 1013.7
20260507174227 15 211 4.8 8.0 0.00 0.05 0.05 62 1013.7
20260507173722 15 206 4.8 8.0 0.00 0.05 0.05 61 1013.6
20260507172205 16 22 0.0 8.0 0.00 0.05 0.05 58 1013.5
20260507171707 16 213 3.2 8.0 0.00 0.05 0.05 60 1013.4
20260507170703 16 240 4.8 9.7 0.00 0.05 0.05 59 1013.5
20260507170207 16 221 4.8 9.7 0.00 0.05 0.05 59 1013.5
20260507165702 16 199 3.2 11.3 0.00 0.05 0.05 58 1013.6
20260507165205 16 184 8.0 11.3 0.00 0.05 0.05 57 1013.6
20260507164702 16 211 3.2 11.3 0.00 0.05 0.05 58 1013.5
20260507164200 16 222 8.0 14.5 0.00 0.05 0.05 56 1013.6
20260507163700 16 202 8.0 14.5 0.00 0.05 0.05 57 1013.6
20260507163158 16 188 4.8 9.7 0.00 0.05 0.05 56 1013.6
20260507162653 16 208 3.2 9.7 0.00 0.05 0.05 57 1013.6
20260507162156 16 205 6.4 9.7 0.00 0.05 0.05 57 1013.5
20260507161656 16 186 3.2 8.0 0.00 0.05 0.05 59 1013.5
20260507161155 16 222 3.2 8.0 0.00 0.05 0.05 57 1013.5
20260507160650 16 207 3.2 6.4 0.00 0.05 0.05 60 1013.6
20260507155642 16 233 3.2 9.7 0.00 0.05 0.05 59 1013.7
20260507155139 16 221 6.4 9.7 0.00 0.05 0.05 59 1013.8
20260507154640 16 209 1.6 9.7 0.00 0.05 0.05 59 1013.6
20260507154134 16 152 4.8 11.3 0.00 0.05 0.05 58 1013.7
20260507153634 16 198 6.4 11.3 0.00 0.05 0.05 61 1013.6
20260507153131 16 232 3.2 9.7 0.00 0.05 0.05 60 1013.6
20260507152629 16 215 3.2 9.7 0.00 0.05 0.05 62 1013.6
20260507152128 15 195 3.2 6.4 0.00 0.05 0.05 64 1013.6
20260507151626 15 106 3.2 4.8 0.00 0.05 0.05 65 1013.6
20260507150625 15 155 1.6 9.7 0.00 0.05 0.05 62 1013.7
20260507150120 16 190 3.2 11.3 0.00 0.05 0.05 60 1013.7
20260507145617 16 210 6.4 11.3 0.00 0.05 0.05 61 1013.7
20260507145113 16 196 6.4 9.7 0.00 0.05 0.05 61 1013.7
20260507144109 16 194 4.8 9.7 0.00 0.05 0.05 61 1013.7
20260507143607 17 200 6.4 9.7 0.00 0.05 0.05 60 1013.7
20260507143107 16 221 4.8 11.3 0.00 0.05 0.05 62 1013.7
20260507142606 16 226 6.4 11.3 0.00 0.05 0.05 61 1013.7
20260507142105 16 163 3.2 6.4 0.00 0.05 0.05 64 1013.7
20260507141603 16 171 1.6 8.0 0.00 0.05 0.05 61 1013.7
20260507141103 16 220 3.2 8.0 0.00 0.05 0.05 62 1013.6
20260507140603 16 0 3.2 9.7 0.00 0.05 0.05 61 1013.6
20260507140124 15 65 3.2 14.5 0.00 0.05 0.05 63 1013.7
20260507135600 16 24 9.7 16.1 0.00 0.05 0.05 63 1013.7
20260507135058 15 264 8.0 16.1 0.00 0.08 0.05 63 1013.9
20260507134557 15 242 3.2 9.7 0.00 0.08 0.05 63 1013.9
20260507133550 15 174 4.8 12.9 0.00 0.10 0.05 62 1014.0
20260507133049 15 20 6.4 12.9 0.00 0.13 0.05 64 1014.1
20260507132549 15 196 6.4 12.9 0.00 0.18 0.05 63 1014.0
20260507132045 15 204 4.8 12.9 0.00 0.23 0.05 62 1014.0
20260507131546 16 198 8.0 12.9 0.00 0.23 0.05 63 1014.1
20260507131040 16 265 6.4 17.7 0.00 0.23 0.05 62 1013.9
20260507130540 16 261 11.3 17.7 0.00 0.25 0.05 60 1014.0
20260507130113 16 253 6.4 16.1 0.00 0.28 0.05 63 1014.0
20260507125533 16 210 4.8 16.1 0.00 0.28 0.05 63 1014.0
20260507125031 16 13 4.8 16.1 0.00 0.30 0.05 66 1014.0
20260507124522 15 250 3.2 9.7 0.00 0.33 0.05 65 1014.0
20260507124018 15 43 4.8 8.0 0.00 0.43 0.05 64 1014.1
20260507123516 15 32 1.6 14.5 0.00 0.46 0.05 62 1014.1
20260507123020 15 232 4.8 14.5 0.00 0.48 0.05 66 1014.2
20260507122517 15 5 3.2 12.9 0.00 0.51 0.05 66 1014.1
20260507122014 15 263 4.8 16.1 0.00 0.53 0.05 66 1014.0
20260507121020 16 11 6.4 12.9 0.00 0.53 0.05 69 1014.0
20260507120504 15 9 3.2 12.9 0.00 0.53 0.05 66 1014.0
20260507120000 15 13 6.4 12.9 0.00 0.53 0.05 67 1014.1
20260507115458 15 0 3.2 9.7 0.00 0.53 0.05 67 1014.0
20260507114957 14 38 3.2 12.9 0.00 0.53 0.05 70 1014.2
20260507113943 14 231 8.0 16.1 0.00 0.53 0.05 70 1014.2
20260507113442 15 262 6.4 12.9 0.00 0.53 0.05 69 1014.2
20260507112940 14 17 3.2 12.9 0.00 0.53 0.05 71 1014.3
20260507112438 14 31 6.4 12.9 0.00 0.53 0.05 71 1014.2
20260507111937 14 247 3.2 9.7 0.00 0.53 0.05 70 1014.3
20260507111440 15 261 3.2 9.7 0.00 0.53 0.05 68 1014.3
20260507110936 15 265 3.2 12.9 0.00 0.53 0.05 70 1014.3
20260507110433 14 207 4.8 14.5 0.00 0.53 0.05 69 1014.3
20260507105929 14 264 6.4 14.5 0.00 0.53 0.05 70 1014.3
20260507105428 15 161 9.7 12.9 0.00 0.53 0.05 66 1014.4
20260507104928 14 238 6.4 16.1 0.00 0.53 0.05 69 1014.4
20260507104426 13 210 3.2 16.1 0.00 0.53 0.05 71 1014.5
20260507103923 13 224 8.0 14.5 0.00 0.53 0.05 70 1014.5
20260507103421 14 209 3.2 9.7 0.00 0.53 0.05 70 1014.5
20260507102920 15 232 3.2 9.7 0.00 0.53 0.05 70 1014.6
20260507102421 14 238 4.8 11.3 0.00 0.53 0.05 73 1014.5
20260507101916 14 57 4.8 14.5 0.00 0.53 0.05 73 1014.6
20260507101415 14 244 4.8 14.5 0.00 0.53 0.05 75 1014.5
20260507100914 13 14 3.2 9.7 0.00 0.53 0.05 74 1014.6
20260507100416 13 265 3.2 11.3 0.00 0.53 0.05 73 1014.6
20260507095911 13 248 6.4 11.3 0.00 0.53 0.05 74 1014.7
20260507094908 12 249 4.8 11.3 0.00 0.53 0.05 74 1014.6
20260507094406 12 234 4.8 14.5 0.00 0.53 0.05 75 1014.6
20260507093903 12 238 4.8 14.5 0.00 0.53 0.05 74 1014.6
20260507093404 12 265 3.2 12.9 0.00 0.53 0.05 73 1014.5
20260507092905 13 184 3.2 11.3 0.00 0.53 0.05 75 1014.5
20260507091901 12 255 4.8 11.3 0.00 0.53 0.05 77 1014.6
20260507091359 12 256 6.4 11.3 0.00 0.53 0.05 76 1014.5
20260507090857 12 231 4.8 8.0 0.00 0.53 0.05 76 1014.5
20260507090358 12 211 3.2 11.3 0.00 0.53 0.05 76 1014.5
20260507085855 12 235 3.2 14.5 0.00 0.53 0.05 75 1014.4
20260507085355 13 216 9.7 14.5 0.00 0.53 0.05 76 1014.5
20260507084845 12 206 6.4 14.5 0.00 0.53 0.05 76 1014.4
20260507084345 12 192 6.4 14.5 0.00 0.53 0.05 77 1014.4
20260507083843 12 215 4.8 11.3 0.00 0.53 0.05 77 1014.3
20260507083343 12 221 3.2 6.4 0.00 0.53 0.05 77 1014.3
20260507082844 12 219 1.6 9.7 0.00 0.53 0.05 79 1014.3
20260507082340 12 243 3.2 9.7 0.00 0.53 0.05 79 1014.4
20260507081838 12 0 3.2 9.7 0.00 0.53 0.05 78 1014.3
20260507081336 12 179 4.8 9.7 0.00 0.53 0.05 76 1014.3
20260507080835 12 216 4.8 9.7 0.00 0.53 0.05 78 1014.2
20260507080332 12 253 1.6 9.7 0.00 0.53 0.05 81 1014.3
20260507075832 11 208 4.8 9.7 0.00 0.53 0.05 80 1014.3
20260507074332 11 219 1.6 4.8 0.00 0.53 0.05 80 1014.2
20260507073833 11 219 1.6 4.8 0.00 0.53 0.05 81 1014.2
20260507073330 11 219 0.0 6.4 0.00 0.53 0.05 83 1014.2
20260507072829 11 248 1.6 6.4 0.00 0.53 0.05 82 1014.3
20260507072332 11 235 1.6 4.8 0.00 0.53 0.05 84 1014.1
20260507071827 11 57 0.0 3.2 0.00 0.53 0.05 83 1014.2
20260507071327 11 57 0.0 3.2 0.00 0.53 0.05 83 1014.1
20260507070825 10 57 0.0 3.2 0.00 0.53 0.05 85 1014.1
20260507070327 10 58 0.0 3.2 0.00 0.53 0.05 84 1014.1
20260507065822 10 58 1.6 3.2 0.00 0.53 0.05 84 1014.1
20260507065322 10 58 0.0 3.2 0.00 0.53 0.05 85 1014.1
20260507064308 10 45 0.0 3.2 0.00 0.53 0.05 85 1014.0
20260507063808 10 45 1.6 3.2 0.00 0.53 0.05 85 1013.9
20260507063307 10 45 1.6 3.2 0.00 0.53 0.05 87 1013.9
20260507062803 10 45 0.0 3.2 0.00 0.53 0.05 87 1013.9
20260507062306 10 45 0.0 3.2 0.00 0.53 0.05 88 1013.9
20260507061803 9 45 1.6 3.2 0.00 0.53 0.05 88 1013.9
20260507061303 9 45 0.0 3.2 0.00 0.53 0.05 89 1013.9
20260507055800 9 45 1.6 3.2 0.00 0.53 0.05 90 1013.8
20260507055258 9 45 1.6 3.2 0.03 0.53 0.05 90 1013.7
20260507054756 8 45 1.6 3.2 0.03 0.53 0.05 90 1013.6
20260507054254 8 45 0.0 3.2 0.03 0.53 0.05 90 1013.5
20260507053755 8 45 1.6 3.2 0.03 0.53 0.05 91 1013.6
20260507053248 8 45 1.6 4.8 0.03 0.53 0.05 91 1013.5
20260507052746 8 45 3.2 4.8 0.03 0.53 0.05 91 1013.4
20260507052246 8 45 0.0 3.2 0.03 0.53 0.05 91 1013.4
20260507051744 8 45 1.6 4.8 0.03 0.53 0.05 91 1013.2
20260507051238 8 45 3.2 4.8 0.03 0.53 0.05 90 1013.2
20260507050738 8 255 1.6 3.2 0.03 0.53 0.05 90 1013.1
20260507050235 8 255 1.6 3.2 0.03 0.53 0.05 91 1013.2
20260507045736 8 254 1.6 3.2 0.03 0.51 0.05 90 1013.0
20260507045235 8 254 0.0 3.2 0.00 0.51 0.03 90 1013.0
20260507044733 8 254 0.0 4.8 0.00 0.51 0.03 90 1012.9
20260507044234 8 254 1.6 4.8 0.00 0.51 0.03 90 1012.8
20260507043731 8 243 0.0 4.8 0.00 0.51 0.03 90 1012.8
20260507043233 8 238 1.6 4.8 0.00 0.51 0.03 90 1012.8
20260507042731 8 238 1.6 4.8 0.00 0.51 0.03 90 1012.8
20260507042231 8 34 0.0 3.2 0.00 0.51 0.03 91 1012.8
20260507041232 8 231 0.0 4.8 0.00 0.51 0.03 91 1012.6
20260507040731 8 231 1.6 4.8 0.00 0.51 0.03 91 1012.6
20260507040233 8 242 1.6 4.8 0.00 0.51 0.03 91 1012.6
20260507035732 8 242 3.2 4.8 0.00 0.51 0.03 91 1012.6
20260507035231 8 17 0.0 3.2 0.03 0.51 0.03 91 1012.5
20260507034725 8 17 1.6 3.2 0.03 0.51 0.03 91 1012.5
20260507034212 8 17 0.0 1.6 0.03 0.51 0.03 91 1012.5
20260507033714 8 17 0.0 3.2 0.03 0.51 0.03 91 1012.5
20260507033221 8 17 0.0 3.2 0.03 0.51 0.03 91 1012.4
20260507032710 8 17 1.6 3.2 0.03 0.51 0.03 91 1012.4
20260507032207 8 17 1.6 3.2 0.03 0.51 0.03 91 1012.5
20260507031704 8 17 0.0 0.0 0.03 0.51 0.03 91 1012.4
20260507031208 8 17 0.0 1.6 0.03 0.51 0.03 91 1012.3
20260507030200 8 17 1.6 1.6 0.03 0.51 0.03 91 1012.5
20260507025656 8 17 0.0 0.0 0.03 0.51 0.03 90 1012.4
20260507025158 8 17 0.0 1.6 0.00 0.51 0.00 90 1012.3
20260507024643 8 17 0.0 3.2 0.00 0.51 0.00 90 1012.4
20260507024134 8 17 1.6 3.2 0.00 0.51 0.00 90 1012.3
20260507023132 8 17 0.0 3.2 0.00 0.51 0.00 90 1012.3
20260507022127 8 17 0.0 3.2 0.00 0.51 0.00 90 1012.2
20260507021622 8 17 0.0 3.2 0.00 0.51 0.00 90 1012.2
20260507021123 8 17 0.0 3.2 0.00 0.51 0.00 90 1012.3
20260507020620 8 17 0.0 4.8 0.00 0.51 0.00 90 1012.1
20260507020124 8 17 1.6 4.8 0.00 0.51 0.00 90 1012.2
20260507015617 8 17 0.0 1.6 0.00 0.51 0.00 90 1012.1
20260507015117 8 17 0.0 3.2 0.00 0.51 0.00 90 1012.0
20260507014612 8 17 0.0 4.8 0.00 0.51 0.00 90 1012.0
20260507014108 8 17 1.6 4.8 0.00 0.51 0.00 90 1012.0
20260507013609 8 232 3.2 8.0 0.00 0.51 0.00 90 1012.0
20260507013108 8 232 3.2 8.0 0.00 0.51 0.00 90 1012.0
20260507012103 8 202 3.2 6.4 0.00 0.51 0.00 91 1012.1
20260507011605 8 220 0.0 0.0 0.00 0.51 0.00 91 1012.0
20260507010610 8 220 0.0 1.6 0.00 0.51 0.00 90 1011.9
20260507010108 8 220 0.0 6.4 0.00 0.51 0.00 91 1011.8
20260507005553 8 220 1.6 6.4 0.00 0.51 0.00 91 1011.9
20260507005050 8 223 3.2 6.4 0.00 0.51 0.00 92 1011.9
20260507004551 8 223 1.6 8.0 0.00 0.51 0.00 92 1011.8
20260507004049 8 221 4.8 8.0 0.00 0.51 0.00 92 1011.9
20260507003548 8 212 1.6 6.4 0.00 0.51 0.00 93 1011.8
20260507002547 8 186 3.2 4.8 0.00 0.51 0.00 93 1011.7
20260507002045 8 212 1.6 3.2 0.00 0.51 0.00 93 1011.7
20260507001043 8 66 0.0 3.2 0.00 0.51 0.00 93 1011.7
20260507000539 8 66 0.0 3.2 0.00 0.51 0.00 93 1011.6
20260506235534 8 66 1.6 6.4 0.00 0.51 0.00 93 1011.5
20260506235036 8 61 3.2 4.8 0.00 0.51 0.00 93 1011.5
20260506234524 8 61 1.6 4.8 0.00 0.51 0.00 93 1011.5
20260506234022 7 59 1.6 4.8 0.00 0.51 0.00 93 1011.4
20260506233521 7 61 3.2 4.8 0.00 0.51 0.00 93 1011.5
20260506233020 7 61 1.6 4.8 0.00 0.51 0.00 93 1011.5
20260506232518 7 61 0.0 4.8 0.00 0.51 0.00 93 1011.5
20260506232018 7 61 1.6 4.8 0.00 0.51 0.00 92 1011.4
20260506231518 7 61 0.0 4.8 0.00 0.51 0.00 92 1011.4
20260506231015 7 61 1.6 6.4 0.00 0.51 0.00 92 1011.5
20260506230512 7 61 3.2 6.4 0.00 0.51 0.00 92 1011.4
20260506230044 7 59 0.0 3.2 0.00 0.51 0.00 92 1011.4
20260506225452 7 59 1.6 6.4 0.00 0.51 0.00 92 1011.2
20260506224950 7 59 3.2 6.4 0.00 0.51 0.00 92 1011.1
20260506224449 7 54 1.6 4.8 0.00 0.51 0.00 92 1011.1
20260506223949 7 54 3.2 4.8 0.00 0.51 0.00 92 1011.2
20260506223444 7 54 3.2 6.4 0.00 0.51 0.00 92 1011.1
20260506222943 7 54 4.8 6.4 0.00 0.51 0.00 92 1011.1
20260506221434 7 70 1.6 3.2 0.00 0.51 0.00 92 1011.1
20260506220937 7 70 1.6 3.2 0.00 0.51 0.00 92 1011.2
20260506220434 7 70 1.6 4.8 0.00 0.51 0.00 92 1011.1
20260506215425 8 70 3.2 6.4 0.00 0.51 0.51 92 1011.0
20260506214925 8 73 3.2 6.4 0.00 0.51 0.51 92 1011.0
20260506214422 8 67 3.2 6.4 0.00 0.51 0.51 92 1011.0